Location: Newark
(7.1028°S, 35.3258°W)
Time: 19:24:29
(UTC+00:00)

A-11 Canister half - All Passes

Search period start: 28 February 2020 00:00
Search period end: 09 March 2020 00:00
Orbit: 1524 x 1684 km, 47.3° (Epoch: 27 February)

Date Brightness Start Highest point End Pass type
(mag) Time Alt. Az. Time Alt. Az. Time Alt. Az.
28 Feb - 05:42:41 10° SSW 05:51:28 33° SE 06:00:01 10° ENE visible
28 Feb - 07:46:48 10° SW 07:56:38 59° NW 08:06:10 10° NNE visible
28 Feb - 18:38:22 10° N 18:46:34 34° NE 18:54:57 10° ESE daylight
28 Feb - 20:42:13 10° WNW 20:51:19 51° SW 21:00:48 10° SSE visible
29 Feb - 05:21:09 10° SSW 05:29:44 30° SE 05:38:07 10° ENE visible
29 Feb - 07:25:02 10° SW 07:34:59 63° NW 07:44:37 10° NNE visible
29 Feb - 18:16:57 10° N 18:24:56 31° NE 18:33:04 10° ESE daylight
29 Feb - 20:20:30 10° NW 20:29:40 55° SW 20:39:12 10° SSE daylight
29 Feb - 22:34:37 10° SW 22:36:09 10° SW 22:37:42 10° SSW visible
01 Mar - 04:59:39 10° SSW 05:08:02 28° SE 05:16:12 10° E visible
01 Mar - 07:03:18 10° SW 07:13:19 67° NW 07:23:03 10° NNE visible
01 Mar - 09:16:32 10° WNW 09:18:20 11° NW 09:20:06 10° NW daylight
01 Mar - 17:55:35 10° N 18:03:19 29° NE 18:11:10 10° ESE daylight
01 Mar - 19:58:47 10° NW 20:08:00 59° SW 20:17:36 10° SSE daylight
01 Mar - 22:11:34 10° SW 22:14:22 11° SW 22:17:11 10° SSW visible
02 Mar - 04:38:09 10° S 04:46:17 27° SE 04:54:16 10° E visible
02 Mar - 06:41:35 10° SW 06:51:40 72° NW 07:01:28 10° NNE visible
02 Mar - 08:53:20 10° WNW 08:56:38 12° NW 08:59:55 10° NNW daylight
02 Mar - 17:34:13 10° N 17:41:40 27° NE 17:49:15 10° ESE daylight
02 Mar - 19:37:05 10° NW 19:46:21 63° SW 19:56:00 10° SSE daylight
02 Mar - 21:48:58 10° WSW 21:52:35 12° SW 21:56:14 10° SSW visible
03 Mar - 04:16:41 10° S 04:24:33 25° SE 04:32:17 10° E visible
03 Mar - 06:19:52 10° SW 06:30:01 77° NW 06:39:53 10° NE visible
03 Mar - 08:30:40 10° WNW 08:34:56 13° NW 08:39:12 10° NNW daylight
03 Mar - 17:12:53 10° N 17:20:03 25° NE 17:27:18 10° ESE daylight
03 Mar - 19:15:25 10° NW 19:24:43 67° SW 19:34:22 10° SSE daylight
03 Mar - 21:26:33 10° WSW 21:30:48 13° SW 21:35:07 10° S visible
04 Mar - 03:55:13 10° S 04:02:49 23° SE 04:10:18 10° E visible
04 Mar - 05:58:10 10° SW 06:08:22 82° NW 06:18:16 10° NE visible
04 Mar - 08:08:13 10° W 08:13:15 15° NW 08:18:16 10° NNW visible
04 Mar - 16:51:34 10° N 16:58:24 23° NE 17:05:19 10° E daylight
04 Mar - 18:53:45 10° NW 19:03:04 72° SW 19:12:45 10° SE daylight
04 Mar - 21:04:15 10° WSW 21:09:02 15° SW 21:13:55 10° S visible
05 Mar - 03:33:47 10° S 03:41:04 22° SE 03:48:15 10° E visible
05 Mar - 05:36:29 10° SW 05:46:42 86° NW 05:56:39 10° NE visible
05 Mar - 07:45:54 10° W 07:51:35 16° NW 07:57:12 10° NNW visible
05 Mar - 16:30:18 10° N 16:36:45 21° NE 16:43:17 10° E daylight
05 Mar - 18:32:06 10° NW 18:41:26 76° SW 18:51:07 10° SE daylight
05 Mar - 20:42:02 10° WSW 20:47:16 16° SW 20:52:38 10° S daylight
06 Mar - 03:12:22 10° S 03:19:19 20° SE 03:26:11 10° E night (unlit)
06 Mar - 05:14:48 10° SW 05:25:01 89° SE 05:35:01 10° NE visible
06 Mar - 07:23:40 10° W 07:29:54 18° NW 07:36:03 10° NNW visible
06 Mar - 16:09:04 10° N 16:15:07 19° NE 16:21:13 10° E daylight
06 Mar - 18:10:27 10° NW 18:19:48 81° SW 18:29:28 10° SE daylight
06 Mar - 20:19:52 10° WSW 20:25:32 17° SW 20:31:19 10° S daylight
07 Mar - 02:51:00 10° S 02:57:34 19° SE 03:04:04 10° E night (unlit)
07 Mar - 04:53:08 10° SW 05:03:22 84° SE 05:13:22 10° NE visible
07 Mar - 07:01:31 10° W 07:08:13 20° NW 07:14:51 10° N visible
07 Mar - 15:47:54 10° NNE 15:53:29 17° NE 15:59:05 10° E daylight
07 Mar - 17:48:50 10° NW 17:58:10 87° SW 18:07:50 10° SE daylight
07 Mar - 19:57:46 10° W 20:03:47 18° SW 20:09:57 10° S daylight
08 Mar - 02:29:38 10° S 02:35:48 17° SE 02:41:54 10° ESE night (unlit)
08 Mar - 04:31:29 10° SW 04:41:42 79° SE 04:51:42 10° NE visible
08 Mar - 06:39:26 10° W 06:46:33 22° NW 06:53:36 10° N visible
08 Mar - 15:26:47 10° NNE 15:31:49 16° NE 15:36:53 10° E daylight
08 Mar - 17:27:13 10° NW 17:36:33 88° NE 17:46:10 10° SE daylight
08 Mar - 19:35:43 10° W 19:42:03 20° SW 19:48:34 10° S daylight
